User: anonymous   Login
Location: Chefe Valiua
(16.5342°S, 37.2214°E)
Time: 20:38:16
(UTC+00:00)
Language:

Aurora 2 Rocket - Orbit

View from above orbital plane
View from above orbital plane
View from above satellite
View from above satellite

Ground track
Ground track

The orbit data is extracted from the following two-line orbital elements,

1 21393U 91037B   21126.90890522  .00001298  00000-0  79675-4 0  9993
2 21393  24.9877 290.3502 0906096 246.5640 103.7089 13.52233967443274
Epoch (UTC): 06 May 2021 21:48:49
Eccentricity: 0.0906096
inclination: 24.9877°
perigee height: 390 km
apogee height: 1738 km
right ascension of ascending node: 290.3502°
argument of perigee: 246.5640°
revolutions per day: 13.52233967
mean anomaly at epoch: 103.7089°
orbit number at epoch: 44327

The dashed part of the orbit path shows where the satellite is in the earth's shadow,  

DLR